Location: The Saddle
(36.8333°N, 80.3417°W)
Time: 07:46:36
(UTC-04:00)

A-11 Canister half - Pass Details

Date: 03 June 2024
Orbit: 1515 x 1685 km, 47.2° (Epoch: 17 June)

Event Time Altitude Azimuth Distance (km) Brightness Sun altitude
Rises 00:25:22 0° 241° (WSW) 4,872 11.5 -29.4°
Reaches altitude 10° 00:28:33 10° 243° (WSW) 3,866 11.0 -29.6°
Maximum altitude 00:38:25 77° 330° (NNW) 1,627 9.1 -30.0°
Drops below altitude 10° 00:47:57 10° 57° (ENE) 3,739 11.3 -30.3°
Sets 00:50:59 0° 59° (ENE) 4,706 11.8 -30.4°
